sat.trackr.live / text

‹ back to catalog

YAOGAN-35 04A

NORAD 53522 · 2022-100A

PAYLOAD ACTIVE UNKNOWN

§ Identity

Operator
Country
PRC
Launch date
2022-08-19
Launch site
XICLF
Launch vehicle
Mass (kg)
RCS (m²)

External: N2YO · Heavens-Above · Gunter

§ Orbital elements

Epoch: 2026-09-20T22:58:40.225728Z

Period
94.56 min
Inclination
35.0089°
Eccentricity
0.0006964
Mean motion
15.22919349 rev/d
Perigee alt
492.3 km
Apogee alt
501.8 km
Semi-major
6,875.2 km
B*
2.5319e-4
RAAN
169.5842°
Arg perigee
52.9474°
Mean anomaly
307.1877°
Rev number
22,787

§ Raw data

YAOGAN-35 04A1 53522U 22100A   26263.95741002  .00006056  00000+0  25319-3 0  99982 53522  35.0089 169.5842 0006964  52.9474 307.1877 15.22919349227879

JSON: /api/v1/satellites/53522 · /tle

For live sub-satellite position, see the globe view (requires WebGL).

§ Visibility from observer

Set your observer location to see the next 7 days of passes ≥ 10°. The values pass through the URL so the page stays shareable.

No JS? Fill the form by hand. The geolocation button needs JavaScript.